Lancaster, OH

1:47 PM EDT on August 18, 2017 (GMT -0400)
Fairfield County

Weather History for KLHQ - October, 2012

Change the Weather History Date:

Sunday, October 21, 2012

  Actual Average Record
Temperature  
Mean Temperature 46 °F -  
Max Temperature 61 °F 60 °F 86 °F (1953)
Min Temperature 32 °F 36 °F 17 °F (1969)
Degree Days  
Heating Degree Days 19    
Moisture  
Dew Point 36 °F    
Average Humidity 82    
Maximum Humidity 96    
Minimum Humidity 47    
Precipitation  
Precipitation 0.00 in - - ()
Sea Level Pressure  
Sea Level Pressure 30.12 in    
Wind  
Wind Speed 1 mph (SSW)    
Max Wind Speed 8 mph    
Max Gust Speed -    
Visibility 7 miles    
Events Fog    
Averages and records for this station are not official NWS values.
T = Trace of Precipitation, MM = Missing Value Source: NWS Daily Summary

Daily Weather History Graph

Daily Weather History Graph

Search for Another Location

Airport or City:

Trip Planner

Search our weather history database for the weather conditions in past years. The results will help you decide how hot, cold, wet, or windy it might be!

Date:

Astronomy

Oct. 21, 2012 Rise Set
Actual Time 7:47 AM EDT 6:42 PM EDT
Civil Twilight 7:20 AM EDT 7:09 PM EDT
Nautical Twilight 6:48 AM EDT 7:40 PM EDT
Astronomical Twilight 6:17 AM EDT 8:12 PM EDT
Moon 2:07 PM EDT (10/21) No Moon Set
Length of Visible Light 11h 49m
Length of Day
10h 54m
Waxing Crescent, 45% of the Moon is Illuminated
Oct 21
Waxing Crescent
Oct 21
First Quarter
Oct 29
Full
Nov 6
Last Quarter
Nov 13
New

Hourly Weather History & Observations

Time (EDT) Temp. Windchill Dew Point Humidity Pressure Visibility Wind Dir Wind Speed Gust Speed Precip Events Conditions
12:53 AM 42.1 °F 40.2 °F 39.0 °F 89% 30.01 in 10.0 mi WSW 3.5 mph - N/A   Clear
1:53 AM 39.9 °F - 37.9 °F 93% 30.02 in 9.0 mi Calm Calm - N/A   Clear
2:53 AM 37.0 °F - 35.1 °F 93% 30.04 in 7.0 mi Calm Calm - N/A   Clear
3:53 AM 37.0 °F - 35.1 °F 93% 30.06 in 6.0 mi Calm Calm - N/A   Clear
4:53 AM 35.1 °F - 33.1 °F 92% 30.08 in 6.0 mi Calm Calm - N/A   Clear
5:53 AM 33.1 °F 30.0 °F 30.9 °F 92% 30.10 in 4.0 mi SE 3.5 mph - N/A   Clear
6:27 AM 33.8 °F - 30.2 °F 87% 30.10 in 2.0 mi Calm Calm - N/A   Clear
6:38 AM 32.0 °F - 30.2 °F 93% 30.10 in 2.5 mi Calm Calm - N/A   Clear
6:45 AM 33.8 °F - 30.2 °F 87% 30.11 in 7.0 mi Calm Calm - N/A   Clear
6:53 AM 33.1 °F - 30.9 °F 92% 30.12 in 7.0 mi Calm Calm - N/A   Clear
7:01 AM 33.8 °F - 30.2 °F 87% 30.11 in 1.8 mi Calm Calm - N/A   Partly Cloudy
7:13 AM 33.8 °F - 30.2 °F 87% 30.11 in 3.0 mi Calm Calm - N/A   Scattered Clouds
7:28 AM 33.8 °F - 30.2 °F 87% 30.12 in 7.0 mi Calm Calm - N/A   Mostly Cloudy
7:34 AM 32.0 °F - 30.2 °F 93% 30.12 in 1.5 mi Calm Calm - N/A   Mostly Cloudy
7:39 AM 33.8 °F - 30.2 °F 87% 30.12 in 0.8 mi Calm Calm - N/A   Mist
7:53 AM 32.0 °F - 30.0 °F 92% 30.14 in 0.2 mi Calm Calm - N/A Fog Fog
8:08 AM 33.8 °F - 30.2 °F 87% 30.13 in 1.2 mi Calm Calm - N/A   Scattered Clouds
8:12 AM 33.8 °F - 32.0 °F 93% 30.13 in 3.0 mi Calm Calm - N/A   Partly Cloudy
8:53 AM 37.0 °F - 36.0 °F 96% 30.16 in 7.0 mi Calm Calm - N/A   Clear
9:53 AM 46.9 °F - 43.0 °F 86% 30.16 in 8.0 mi SW 3.5 mph - N/A   Clear
10:53 AM 51.1 °F - 44.1 °F 77% 30.17 in 10.0 mi Variable 3.5 mph - N/A   Clear
11:53 AM 55.0 °F - 44.1 °F 67% 30.17 in 10.0 mi SSW 3.5 mph - N/A   Partly Cloudy
12:53 PM 57.0 °F - 43.0 °F 59% 30.17 in 10.0 mi Variable 4.6 mph - N/A   Mostly Cloudy
1:53 PM 57.9 °F - 42.1 °F 56% 30.15 in 10.0 mi SSW 6.9 mph - N/A   Clear
2:53 PM 59.0 °F - 39.9 °F 49% 30.13 in 10.0 mi SW 8.1 mph - N/A   Clear
3:53 PM 60.1 °F - 39.9 °F 47% 30.12 in 10.0 mi SSW 3.5 mph - N/A   Clear
4:53 PM 60.1 °F - 41.0 °F 49% 30.12 in 10.0 mi SSW 6.9 mph - N/A   Clear
5:53 PM 59.0 °F - 42.1 °F 53% 30.12 in 10.0 mi SSW 4.6 mph - N/A   Clear
6:53 PM 48.9 °F - 39.9 °F 71% 30.13 in 10.0 mi Calm Calm - N/A   Clear
7:53 PM 45.0 °F - 41.0 °F 86% 30.14 in 10.0 mi Calm Calm - N/A   Clear
8:53 PM 42.1 °F - 37.9 °F 85% 30.14 in 10.0 mi Calm Calm - N/A   Clear
9:53 PM 39.9 °F - 37.9 °F 93% 30.14 in 10.0 mi Calm Calm - N/A   Clear
10:53 PM 39.9 °F - 37.0 °F 89% 30.15 in 9.0 mi Calm Calm - N/A   Clear
11:53 PM 39.0 °F - 37.0 °F 93% 30.15 in 8.0 mi Calm Calm - N/A   Clear